| time (UTC) | temp F | wind direction | speed knots | gust knots | rain 1hr in | rain 24hr in | rain mn in | humidity % | barometer mb |
| 20260906112026 | 70 | 0.0 | 0.0 | 0.00 | 0.34 | 0.01 | 99 | 1012.8 | |
| 20260906111020 | 70 | 0.0 | 0.0 | 0.00 | 0.34 | 0.01 | 99 | 1012.6 | |
| 20260906110033 | 70 | 0.0 | 0.0 | 0.00 | 0.34 | 0.01 | 99 | 1012.6 | |
| 20260906105032 | 70 | 0.0 | 0.0 | 0.00 | 0.34 | 0.01 | 99 | 1012.5 | |
| 20260906104031 | 70 | 0.0 | 0.0 | 0.00 | 0.34 | 0.01 | 99 | 1012.4 | |
| 20260906103029 | 70 | 0.0 | 0.0 | 0.00 | 0.34 | 0.01 | 99 | 1012.4 | |
| 20260906102028 | 70 | 0.0 | 0.0 | 0.00 | 0.34 | 0.01 | 99 | 1012.3 | |
| 20260906101023 | 71 | 0.0 | 0.0 | 0.00 | 0.34 | 0.01 | 99 | 1012.3 | |
| 20260906100016 | 71 | 0.0 | 0.0 | 0.00 | 0.34 | 0.01 | 99 | 1012.2 | |
| 20260906095025 | 71 | 0.0 | 0.0 | 0.00 | 0.34 | 0.01 | 99 | 1012.1 | |
| 20260906094023 | 71 | 0.0 | 0.0 | 0.00 | 0.34 | 0.01 | 99 | 1011.9 | |
| 20260906093017 | 70 | 0.0 | 0.0 | 0.01 | 0.34 | 0.01 | 99 | 1011.8 | |
| 20260906092030 | 70 | 0.0 | 0.0 | 0.01 | 0.34 | 0.01 | 99 | 1011.8 | |
| 20260906091030 | 70 | 0.0 | 0.0 | 0.01 | 0.34 | 0.01 | 99 | 1011.8 | |
| 20260906090024 | 70 | 0.0 | 0.0 | 0.01 | 0.34 | 0.01 | 99 | 1011.8 | |
| 20260906085019 | 70 | 0.0 | 0.0 | 0.01 | 0.34 | 0.01 | 99 | 1011.9 | |
| 20260906084019 | 70 | 0.0 | 0.0 | 0.01 | 0.34 | 0.01 | 99 | 1012.0 | |
| 20260906083025 | 71 | 0.0 | 0.0 | 0.00 | 0.33 | 0.00 | 99 | 1012.2 | |
| 20260906082020 | 71 | 0.0 | 0.0 | 0.00 | 0.33 | 0.00 | 99 | 1012.1 | |
| 20260906081021 | 71 | 0.0 | 0.0 | 0.00 | 0.33 | 0.00 | 99 | 1012.2 | |
| 20260906080015 | 71 | 0.0 | 0.0 | 0.00 | 0.33 | 0.00 | 99 | 1012.3 | |
| 20260906075027 | 71 | 0.0 | 0.0 | 0.00 | 0.33 | 0.00 | 99 | 1012.2 | |
| 20260906074022 | 71 | 0.0 | 0.0 | 0.00 | 0.33 | 0.00 | 99 | 1012.3 | |
| 20260906073017 | 71 | 0.0 | 0.0 | 0.00 | 0.33 | 0.00 | 99 | 1012.4 | |
| 20260906072019 | 71 | 0.0 | 0.0 | 0.00 | 0.33 | 0.00 | 99 | 1012.3 | |
| 20260906071017 | 71 | 0.0 | 0.0 | 0.00 | 0.33 | 0.00 | 99 | 1012.5 | |
| 20260906070029 | 71 | 0.0 | 0.0 | 0.00 | 0.33 | 0.00 | 99 | 1012.6 | |
| 20260906065030 | 71 | 0.0 | 0.0 | 0.00 | 0.33 | 0.00 | 99 | 1012.6 | |
| 20260906064023 | 71 | 0.0 | 0.0 | 0.00 | 0.33 | 0.00 | 99 | 1012.5 | |
| 20260906063018 | 71 | 0.0 | 0.0 | 0.00 | 0.33 | 0.00 | 99 | 1012.6 | |
| 20260906062031 | 71 | 0.0 | 0.0 | 0.00 | 0.33 | 0.00 | 99 | 1012.7 | |
| 20260906061031 | 71 | 0.0 | 0.0 | 0.00 | 0.33 | 0.00 | 99 | 1012.8 | |
| 20260906060027 | 71 | 0.0 | 0.0 | 0.00 | 0.33 | 0.00 | 99 | 1012.8 | |
| 20260906055021 | 71 | 0.0 | 0.0 | 0.00 | 0.33 | 0.00 | 99 | 1012.6 | |
| 20260906054019 | 71 | 0.0 | 0.0 | 0.00 | 0.33 | 0.00 | 99 | 1012.6 | |
| 20260906053018 | 71 | 0.0 | 0.0 | 0.00 | 0.33 | 0.00 | 99 | 1012.7 | |
| 20260906052018 | 72 | 0.0 | 0.0 | 0.00 | 0.33 | 0.00 | 99 | 1012.8 | |
| 20260906051017 | 72 | 0.0 | 0.0 | 0.00 | 0.33 | 0.00 | 99 | 1013.0 | |
| 20260906050023 | 72 | 0.0 | 0.0 | 0.00 | 0.33 | 0.00 | 99 | 1013.1 | |
| 20260906045018 | 72 | 0.0 | 0.0 | 0.00 | 0.33 | 0.00 | 99 | 1013.2 | |
| 20260906044018 | 72 | 0.0 | 0.0 | 0.00 | 0.33 | 0.00 | 99 | 1013.1 | |
| 20260906043019 | 72 | 0.0 | 0.0 | 0.00 | 0.33 | 0.00 | 99 | 1013.2 | |
| 20260906042018 | 72 | 0.0 | 0.0 | 0.00 | 0.33 | 0.00 | 99 | 1013.3 | |
| 20260906041031 | 72 | 0.0 | 0.0 | 0.00 | 0.33 | 0.00 | 99 | 1013.4 | |
| 20260906040032 | 72 | 0.0 | 0.0 | 0.00 | 0.33 | 0.00 | 99 | 1013.5 | |
| 20260906035031 | 72 | 0.0 | 0.0 | 0.00 | 0.33 | 0.33 | 99 | 1013.7 | |
| 20260906034029 | 72 | 0.0 | 0.0 | 0.00 | 0.33 | 0.33 | 99 | 1013.5 | |
| 20260906033028 | 72 | 0.0 | 0.0 | 0.00 | 0.33 | 0.33 | 99 | 1013.5 | |
| 20260906032022 | 72 | 0.0 | 0.0 | 0.00 | 0.33 | 0.33 | 99 | 1013.7 | |
| 20260906031017 | 72 | 0.0 | 0.0 | 0.00 | 0.33 | 0.33 | 99 | 1013.6 | |
| 20260906030030 | 73 | 232 | 1.7 | 3.5 | 0.00 | 0.33 | 0.33 | 99 | 1013.5 |
| 20260906025026 | 73 | 188 | 1.7 | 2.6 | 0.00 | 0.33 | 0.33 | 99 | 1013.4 |
| 20260906024021 | 73 | 225 | 0.0 | 0.9 | 0.00 | 0.33 | 0.33 | 99 | 1013.3 |
| 20260906023021 | 73 | 335 | 0.9 | 2.6 | 0.00 | 0.33 | 0.33 | 99 | 1012.9 |
| 20260906022020 | 73 | 186 | 0.9 | 2.6 | 0.00 | 0.33 | 0.33 | 99 | 1012.6 |
| 20260906021032 | 73 | 215 | 0.9 | 1.7 | 0.00 | 0.33 | 0.33 | 99 | 1012.4 |
| 20260906020030 | 73 | 45 | 0.0 | 1.7 | 0.00 | 0.33 | 0.33 | 99 | 1012.4 |
| 20260906015024 | 73 | 154 | 2.6 | 3.5 | 0.00 | 0.33 | 0.33 | 99 | 1012.8 |
| 20260906014025 | 74 | 83 | 1.7 | 2.6 | 0.00 | 0.33 | 0.33 | 99 | 1012.7 |
| 20260906013020 | 74 | 258 | 1.7 | 3.5 | 0.00 | 0.33 | 0.33 | 99 | 1011.5 |
| 20260906012019 | 74 | 255 | 2.6 | 2.6 | 0.12 | 0.33 | 0.33 | 99 | 1010.1 |
| 20260906011033 | 74 | 158 | 0.0 | 1.7 | 0.31 | 0.33 | 0.33 | 99 | 1010.8 |
| 20260906010030 | 74 | 96 | 2.6 | 2.6 | 0.33 | 0.33 | 0.33 | 99 | 1011.3 |
| 20260906005025 | 74 | 84 | 0.9 | 2.6 | 0.33 | 0.33 | 0.33 | 99 | 1011.9 |
| 20260906004020 | 74 | 0.0 | 0.0 | 0.33 | 0.33 | 0.33 | 99 | 1012.9 | |
| 20260906003018 | 74 | 127 | 2.6 | 4.3 | 0.33 | 0.33 | 0.33 | 98 | 1014.5 |
| 20260906002017 | 76 | 140 | 2.6 | 5.2 | 0.21 | 0.21 | 0.21 | 91 | 1014.5 |
| 20260906001017 | 84 | 272 | 5.2 | 8.7 | 0.02 | 0.02 | 0.02 | 64 | 1013.8 |
| 20260906000023 | 86 | 243 | 4.3 | 7.0 | 0.00 | 0.00 | 0.00 | 67 | 1013.3 |
| 20260905235017 | 87 | 345 | 2.6 | 4.3 | 0.00 | 0.00 | 0.00 | 82 | 1013.0 |
| 20260905234017 | 88 | 270 | 0.0 | 1.7 | 0.00 | 0.00 | 0.00 | 79 | 1012.5 |
| 20260905233029 | 89 | 0.0 | 0.0 | 0.00 | 0.00 | 0.00 | 76 | 1012.6 | |
| 20260905232024 | 91 | 0.0 | 0.0 | 0.00 | 0.00 | 0.00 | 73 | 1012.7 | |
| 20260905231019 | 92 | 0.0 | 0.0 | 0.00 | 0.00 | 0.00 | 70 | 1012.5 | |
| 20260905230032 | 93 | 69 | 1.7 | 3.5 | 0.00 | 0.00 | 0.00 | 66 | 1012.3 |
| 20260905225026 | 96 | 0.0 | 0.0 | 0.00 | 0.00 | 0.00 | 59 | 1012.0 | |
| 20260905224020 | 97 | 0.0 | 0.0 | 0.00 | 0.00 | 0.00 | 57 | 1012.1 | |
| 20260905223018 | 99 | 242 | 0.9 | 3.5 | 0.00 | 0.00 | 0.00 | 55 | 1011.9 |
| 20260905222025 | 102 | 232 | 1.7 | 3.5 | 0.00 | 0.00 | 0.00 | 49 | 1011.8 |
| 20260905221019 | 101 | 141 | 1.7 | 4.3 | 0.00 | 0.00 | 0.00 | 50 | 1011.7 |
| 20260905220019 | 101 | 183 | 1.7 | 2.6 | 0.00 | 0.00 | 0.00 | 49 | 1011.6 |
| 20260905215019 | 101 | 274 | 1.7 | 3.5 | 0.00 | 0.00 | 0.00 | 49 | 1011.7 |
| 20260905214019 | 98 | 266 | 0.9 | 2.6 | 0.00 | 0.00 | 0.00 | 53 | 1011.6 |
| 20260905213030 | 99 | 342 | 1.7 | 3.5 | 0.00 | 0.00 | 0.00 | 51 | 1011.6 |
| 20260905212029 | 99 | 356 | 1.7 | 2.6 | 0.00 | 0.00 | 0.00 | 51 | 1011.5 |
| 20260905211023 | 100 | 296 | 1.7 | 2.6 | 0.00 | 0.00 | 0.00 | 52 | 1011.6 |
| 20260905210021 | 98 | 239 | 2.6 | 3.5 | 0.00 | 0.00 | 0.00 | 53 | 1011.5 |
| 20260905205016 | 99 | 210 | 1.7 | 3.5 | 0.00 | 0.00 | 0.00 | 52 | 1011.4 |
| 20260905204022 | 97 | 156 | 0.9 | 1.7 | 0.00 | 0.00 | 0.00 | 55 | 1011.4 |
| 20260905203015 | 99 | 3 | 1.7 | 3.5 | 0.00 | 0.00 | 0.00 | 52 | 1011.3 |
| 20260905202016 | 100 | 268 | 1.7 | 2.6 | 0.00 | 0.00 | 0.00 | 52 | 1011.5 |
| 20260905201028 | 101 | 273 | 2.6 | 3.5 | 0.00 | 0.00 | 0.00 | 50 | 1011.5 |
| 20260905200023 | 100 | 236 | 2.6 | 5.2 | 0.00 | 0.00 | 0.00 | 52 | 1011.6 |
| 20260905195017 | 99 | 266 | 2.6 | 5.2 | 0.00 | 0.00 | 0.00 | 52 | 1011.6 |
| 20260905194017 | 100 | 260 | 3.5 | 6.1 | 0.00 | 0.00 | 0.00 | 53 | 1011.8 |
| 20260905193016 | 98 | 170 | 2.6 | 4.3 | 0.00 | 0.00 | 0.00 | 55 | 1012.1 |
| 20260905192023 | 97 | 128 | 1.7 | 3.5 | 0.00 | 0.00 | 0.00 | 57 | 1012.4 |
| 20260905191017 | 98 | 127 | 2.6 | 3.5 | 0.00 | 0.00 | 0.00 | 55 | 1012.6 |
| 20260905190022 | 98 | 237 | 3.5 | 5.2 | 0.00 | 0.00 | 0.00 | 56 | 1012.7 |
| 20260905185016 | 98 | 279 | 2.6 | 4.3 | 0.00 | 0.00 | 0.00 | 56 | 1012.9 |
| 20260905184017 | 97 | 208 | 2.6 | 3.5 | 0.00 | 0.00 | 0.00 | 57 | 1013.2 |
| 20260905183029 | 98 | 58 | 2.6 | 3.5 | 0.00 | 0.00 | 0.00 | 54 | 1013.3 |
| 20260905182028 | 98 | 114 | 1.7 | 2.6 | 0.00 | 0.00 | 0.00 | 58 | 1013.5 |
| 20260905181027 | 97 | 199 | 1.7 | 3.5 | 0.00 | 0.00 | 0.00 | 57 | 1013.6 |
| 20260905180022 | 97 | 136 | 3.5 | 4.3 | 0.00 | 0.00 | 0.00 | 57 | 1013.7 |
| 20260905175022 | 98 | 296 | 4.3 | 5.2 | 0.00 | 0.00 | 0.00 | 57 | 1013.7 |
| 20260905174020 | 96 | 220 | 1.7 | 3.5 | 0.00 | 0.00 | 0.00 | 58 | 1013.8 |
| 20260905173026 | 97 | 219 | 1.7 | 4.3 | 0.00 | 0.00 | 0.00 | 61 | 1014.1 |
| 20260905172022 | 97 | 272 | 3.5 | 5.2 | 0.00 | 0.00 | 0.00 | 59 | 1014.3 |
| 20260905171016 | 92 | 102 | 2.6 | 3.5 | 0.00 | 0.00 | 0.00 | 67 | 1014.4 |
| 20260905170015 | 96 | 301 | 2.6 | 3.5 | 0.00 | 0.00 | 0.00 | 61 | 1014.6 |
| 20260905165015 | 92 | 209 | 1.7 | 2.6 | 0.00 | 0.00 | 0.00 | 67 | 1014.7 |
| 20260905164029 | 92 | 236 | 2.6 | 3.5 | 0.00 | 0.00 | 0.00 | 68 | 1014.8 |
| 20260905163028 | 94 | 215 | 2.6 | 4.3 | 0.00 | 0.00 | 0.00 | 65 | 1015.0 |
| 20260905162022 | 94 | 23 | 1.7 | 3.5 | 0.00 | 0.00 | 0.00 | 65 | 1015.2 |
| 20260905161021 | 92 | 254 | 2.6 | 5.2 | 0.00 | 0.00 | 0.00 | 69 | 1015.3 |
| 20260905160018 | 94 | 297 | 2.6 | 4.3 | 0.00 | 0.00 | 0.00 | 66 | 1015.4 |
| 20260905155025 | 91 | 221 | 2.6 | 4.3 | 0.00 | 0.00 | 0.00 | 72 | 1015.6 |
| 20260905154018 | 91 | 308 | 2.6 | 4.3 | 0.00 | 0.00 | 0.00 | 71 | 1015.8 |
| 20260905153018 | 93 | 320 | 2.6 | 3.5 | 0.00 | 0.00 | 0.00 | 70 | 1015.7 |
| 20260905152031 | 91 | 287 | 2.6 | 3.5 | 0.00 | 0.00 | 0.00 | 71 | 1015.7 |
| 20260905151026 | 90 | 240 | 1.7 | 3.5 | 0.00 | 0.00 | 0.00 | 73 | 1015.7 |
| 20260905150021 | 91 | 280 | 3.5 | 4.3 | 0.00 | 0.00 | 0.00 | 73 | 1015.7 |
| 20260905145016 | 90 | 225 | 1.7 | 4.3 | 0.00 | 0.00 | 0.00 | 75 | 1015.8 |
| 20260905144029 | 89 | 223 | 3.5 | 5.2 | 0.00 | 0.00 | 0.00 | 75 | 1015.8 |
| 20260905143030 | 89 | 239 | 2.6 | 4.3 | 0.00 | 0.00 | 0.00 | 77 | 1015.8 |
| 20260905142029 | 88 | 274 | 3.5 | 5.2 | 0.00 | 0.00 | 0.00 | 79 | 1015.9 |
| 20260905141028 | 86 | 252 | 0.9 | 2.6 | 0.00 | 0.00 | 0.00 | 83 | 1016.0 |
| 20260905140021 | 85 | 200 | 2.6 | 4.3 | 0.00 | 0.00 | 0.00 | 85 | 1016.0 |
| 20260905135021 | 85 | 297 | 2.6 | 4.3 | 0.00 | 0.00 | 0.00 | 85 | 1016.0 |
| 20260905134033 | 86 | 268 | 1.7 | 1.7 | 0.00 | 0.00 | 0.00 | 85 | 1016.2 |
| 20260905133027 | 84 | 246 | 2.6 | 3.5 | 0.00 | 0.00 | 0.00 | 87 | 1016.1 |
| 20260905132021 | 84 | 261 | 1.7 | 2.6 | 0.00 | 0.00 | 0.00 | 89 | 1016.1 |
| 20260905131017 | 83 | 312 | 0.9 | 2.6 | 0.00 | 0.00 | 0.00 | 93 | 1016.1 |
| 20260905130016 | 81 | 0.0 | 0.0 | 0.00 | 0.00 | 0.00 | 97 | 1016.1 | |
| 20260905125016 | 79 | 180 | 0.0 | 0.9 | 0.00 | 0.00 | 0.00 | 99 | 1015.9 |
| 20260905124017 | 78 | 0.0 | 0.0 | 0.00 | 0.00 | 0.00 | 99 | 1016.0 | |
| 20260905123016 | 77 | 0.0 | 0.0 | 0.00 | 0.00 | 0.00 | 99 | 1016.1 | |
| 20260905122022 | 76 | 0.0 | 0.0 | 0.00 | 0.00 | 0.00 | 99 | 1016.0 | |
| 20260905121017 | 76 | 0.0 | 0.0 | 0.00 | 0.00 | 0.00 | 99 | 1016.0 | |
| 20260905120018 | 75 | 0.0 | 0.0 | 0.00 | 0.00 | 0.00 | 99 | 1015.9 | |
| 20260905115029 | 74 | 0.0 | 0.0 | 0.00 | 0.00 | 0.00 | 99 | 1015.9 | |
| 20260905114024 | 74 | 0.0 | 0.0 | 0.00 | 0.00 | 0.00 | 99 | 1015.7 | |
| 20260905113028 | 73 | 0.0 | 0.0 | 0.00 | 0.00 | 0.00 | 99 | 1015.6 |